Port Huron, MI

3:44 AM EDT on October 19, 2019 (GMT -0400)
Saint Clair County International

Weather History for KPHN - June, 2019

Change the Weather History Date:

Friday, June 14, 2019

  Actual Average (WUND) Record (WUND)
Temperature  
Mean Temperature 60 °F -  
Max Temperature 73 °F - - (-1)
Min Temperature 48 °F - - (-1)
Degree Days  
Heating Degree Days 4    
Growing Degree Days 10 (Base 50)    
Moisture  
Dew Point 44 °F    
Average Humidity 54    
Maximum Humidity 88    
Minimum Humidity 31    
Precipitation  
Precipitation 0.00 in - - ()
Sea Level Pressure  
Sea Level Pressure 29.95 in    
Wind  
Wind Speed 4 mph (SW)    
Max Wind Speed 10 mph    
Max Gust Speed 17 mph    
Visibility 10 miles    
Events Rain    
Averages and records for this station are not official NWS values.
T = Trace of Precipitation, MM = Missing Value Source: NWS Daily Summary

Daily Weather History Graph

Daily Weather History Graph

Search for Another Location

Airport or City:

Astronomy

Jun. 14, 2019 Rise Set
Actual Time 5:50 AM EDT 9:10 PM EDT
Civil Twilight 5:15 AM EDT 9:45 PM EDT
Nautical Twilight 4:29 AM EDT 10:31 PM EDT
Astronomical Twilight 3:33 AM EDT 11:27 PM EDT
Moon 6:26 PM EDT (6/14) 4:13 AM EDT (6/14)
Length of Visible Light 16h 29m
Length of Day
15h 19m
Waxing Gibbous, 92% of the Moon is Illuminated
Jun 14
Waxing Gibbous
Jun 17
Full
Jun 25
Last Quarter
Jul 2
New
Jul 9
First Quarter

Hourly Weather History & Observations

Time (EDT) Temp. Dew Point Humidity Pressure Visibility Wind Dir Wind Speed Gust Speed Precip Events Conditions
12:19 AM 53.6 °F 50.0 °F 88% 29.85 in 7.0 mi Calm Calm - N/A Rain Light Rain
12:37 AM 53.6 °F 50.0 °F 88% 29.85 in 10.0 mi WSW 3.5 mph - N/A   Overcast
12:55 AM 53.6 °F 50.0 °F 88% 29.85 in 10.0 mi West 3.5 mph - N/A   Overcast
12:56 AM 53.6 °F 50.0 °F 88% 29.85 in 10.0 mi West 4.6 mph - N/A   Overcast
1:15 AM 53.6 °F 50.0 °F 88% 29.86 in 10.0 mi Calm Calm - N/A   Mostly Cloudy
1:16 AM 53.6 °F 50.0 °F 88% 29.86 in 10.0 mi Calm Calm - N/A   Mostly Cloudy
1:35 AM 53.6 °F 48.2 °F 82% 29.86 in 10.0 mi Calm Calm - N/A   Scattered Clouds
1:58 AM 51.8 °F 48.2 °F 88% 29.86 in 10.0 mi West 4.6 mph - N/A   Clear
2:16 AM 51.8 °F 46.4 °F 82% 29.87 in 10.0 mi West 3.5 mph - N/A   Clear
2:35 AM 51.8 °F 46.4 °F 82% 29.88 in 10.0 mi West 4.6 mph - N/A   Clear
2:55 AM 50.0 °F 44.6 °F 82% 29.88 in 10.0 mi West 4.6 mph - N/A   Clear
3:19 AM 50.0 °F 44.6 °F 82% 29.89 in 10.0 mi West 5.8 mph - N/A   Clear
3:37 AM 50.0 °F 42.8 °F 76% 29.90 in 10.0 mi West 4.6 mph - N/A   Clear
3:55 AM 50.0 °F 42.8 °F 76% 29.90 in 10.0 mi West 3.5 mph - N/A   Clear
4:15 AM 50.0 °F 42.8 °F 76% 29.91 in 10.0 mi West 4.6 mph - N/A   Clear
4:35 AM 50.0 °F 41.0 °F 71% 29.91 in 10.0 mi West 4.6 mph - N/A   Clear
4:40 AM 50.0 °F 41.0 °F 71% 29.91 in 10.0 mi Calm Calm - N/A   Clear
4:58 AM 48.2 °F 41.0 °F 76% 29.92 in 10.0 mi Calm Calm - N/A   Clear
5:16 AM 48.2 °F 41.0 °F 76% 29.93 in 10.0 mi Calm Calm - N/A   Clear
5:35 AM 48.2 °F 41.0 °F 76% 29.94 in 10.0 mi Calm Calm - N/A   Clear
5:55 AM 48.2 °F 41.0 °F 76% 29.94 in 10.0 mi Calm Calm - N/A   Clear
6:19 AM 48.2 °F 41.0 °F 76% 29.95 in 10.0 mi Calm Calm - N/A   Clear
6:37 AM 48.2 °F 41.0 °F 76% 29.95 in 10.0 mi Calm Calm - N/A   Clear
6:55 AM 50.0 °F 42.8 °F 76% 29.96 in 10.0 mi WSW 3.5 mph - N/A   Clear
7:15 AM 50.0 °F 42.8 °F 76% 29.97 in 10.0 mi WSW 3.5 mph - N/A   Clear
7:35 AM 51.8 °F 42.8 °F 71% 29.97 in 10.0 mi WSW 5.8 mph - N/A   Clear
7:40 AM 51.8 °F 42.8 °F 71% 29.97 in 10.0 mi SW 3.5 mph - N/A   Clear
7:58 AM 53.6 °F 42.8 °F 67% 29.98 in 10.0 mi West 4.6 mph - N/A   Clear
8:16 AM 55.4 °F 42.8 °F 63% 29.99 in 10.0 mi Calm Calm - N/A   Clear
8:35 AM 57.2 °F 42.8 °F 59% 29.99 in 10.0 mi West 4.6 mph - N/A   Clear
8:55 AM 59.0 °F 42.8 °F 55% 29.99 in 10.0 mi West 4.6 mph - N/A   Clear
8:56 AM 59.0 °F 42.8 °F 55% 29.99 in 10.0 mi WSW 4.6 mph - N/A   Clear
9:19 AM 60.8 °F 42.8 °F 52% 30.00 in 10.0 mi West 6.9 mph - N/A   Clear
9:37 AM 62.6 °F 42.8 °F 48% 30.00 in 10.0 mi WSW 4.6 mph - N/A   Clear
9:55 AM 64.4 °F 44.6 °F 49% 30.00 in 10.0 mi West 8.1 mph - N/A   Clear
10:15 AM 64.4 °F 44.6 °F 49% 30.01 in 10.0 mi WSW 8.1 mph - N/A   Clear
10:35 AM 66.2 °F 44.6 °F 46% 30.01 in 10.0 mi SW 5.8 mph - N/A   Clear
10:39 AM 66.2 °F 44.6 °F 46% 30.01 in 10.0 mi West 8.1 mph - N/A   Clear
10:58 AM 68.0 °F 44.6 °F 43% 30.01 in 10.0 mi WSW 9.2 mph - N/A   Clear
11:16 AM 68.0 °F 46.4 °F 46% 30.00 in 10.0 mi West 6.9 mph - N/A   Clear
11:35 AM 69.8 °F 46.4 °F 43% 30.01 in 10.0 mi West 6.9 mph - N/A   Clear
11:55 AM 69.8 °F 44.6 °F 40% 30.00 in 10.0 mi WSW 8.1 mph - N/A   Clear
11:56 AM 69.8 °F 44.6 °F 40% 30.00 in 10.0 mi West 5.8 mph - N/A   Clear
12:19 PM 71.6 °F 42.8 °F 35% 30.00 in 10.0 mi WSW 9.2 mph - N/A   Clear
12:37 PM 71.6 °F 42.8 °F 35% 30.00 in 10.0 mi West 6.9 mph - N/A   Clear
12:55 PM 71.6 °F 41.0 °F 33% 30.00 in 10.0 mi SW 9.2 mph 17.3 mph N/A   Clear
12:56 PM 71.6 °F 41.0 °F 33% 30.00 in 10.0 mi WSW 10.4 mph 17.3 mph N/A   Clear
1:15 PM 73.4 °F 42.8 °F 33% 30.00 in 10.0 mi West 9.2 mph - N/A   Clear
1:16 PM 73.4 °F 41.0 °F 31% 30.00 in 10.0 mi West 9.2 mph - N/A   Clear
1:35 PM 73.4 °F 41.0 °F 31% 29.99 in 10.0 mi WSW 6.9 mph - N/A   Clear
1:58 PM 73.4 °F 41.0 °F 31% 29.99 in 10.0 mi WSW 10.4 mph 16.1 mph N/A   Scattered Clouds
2:16 PM 73.4 °F 41.0 °F 31% 29.99 in 10.0 mi SW 10.4 mph - N/A   Scattered Clouds
2:35 PM 71.6 °F 41.0 °F 33% 29.99 in 10.0 mi West 6.9 mph - N/A   Clear
2:36 PM 71.6 °F 41.0 °F 33% 29.99 in 10.0 mi West 8.1 mph - N/A   Clear
2:55 PM 71.6 °F 42.8 °F 35% 29.99 in 10.0 mi WSW 6.9 mph - N/A   Clear
3:19 PM 71.6 °F 42.8 °F 35% 29.98 in 10.0 mi WSW 5.8 mph - N/A   Clear
3:37 PM 71.6 °F 42.8 °F 35% 29.98 in 10.0 mi WSW 4.6 mph - N/A   Clear
3:56 PM 71.6 °F 41.0 °F 33% 29.97 in 10.0 mi West 5.8 mph - N/A   Clear
4:15 PM 71.6 °F 41.0 °F 33% 29.97 in 10.0 mi SW 6.9 mph - N/A   Clear
4:35 PM 71.6 °F 41.0 °F 33% 29.96 in 10.0 mi SSW 4.6 mph - N/A   Clear
4:40 PM 71.6 °F 41.0 °F 33% 29.96 in 10.0 mi SSW 3.5 mph - N/A   Clear
4:58 PM 73.4 °F 42.8 °F 33% 29.96 in 10.0 mi SW 8.1 mph - N/A   Clear
5:16 PM 73.4 °F 42.8 °F 33% 29.95 in 10.0 mi SW 8.1 mph - N/A   Clear
5:35 PM 71.6 °F 39.2 °F 31% 29.95 in 10.0 mi SW 5.8 mph - N/A   Clear
5:36 PM 71.6 °F 39.2 °F 31% 29.95 in 10.0 mi SW 3.5 mph - N/A   Clear
5:55 PM 71.6 °F 41.0 °F 33% 29.94 in 10.0 mi SSW 5.8 mph - N/A   Clear
6:19 PM 69.8 °F 46.4 °F 43% 29.95 in 10.0 mi SSW 6.9 mph - N/A   Clear
6:37 PM 69.8 °F 46.4 °F 43% 29.94 in 10.0 mi South 5.8 mph - N/A   Clear
6:55 PM 69.8 °F 46.4 °F 43% 29.94 in 10.0 mi South 8.1 mph - N/A   Clear
7:15 PM 69.8 °F 44.6 °F 40% 29.94 in 10.0 mi South 5.8 mph - N/A   Clear
7:16 PM 69.8 °F 44.6 °F 40% 29.94 in 10.0 mi South 4.6 mph - N/A   Clear
7:35 PM 68.0 °F 46.4 °F 46% 29.93 in 10.0 mi South 5.8 mph - N/A   Clear
7:39 PM 68.0 °F 46.4 °F 46% 29.93 in 10.0 mi South 6.9 mph - N/A   Clear
7:58 PM 68.0 °F 46.4 °F 46% 29.93 in 10.0 mi South 6.9 mph - N/A   Mostly Cloudy
8:16 PM 68.0 °F 46.4 °F 46% 29.93 in 10.0 mi South 6.9 mph - N/A   Mostly Cloudy
8:35 PM 66.2 °F 46.4 °F 49% 29.92 in 10.0 mi South 6.9 mph - N/A   Overcast
8:55 PM 66.2 °F 46.4 °F 49% 29.91 in 10.0 mi South 5.8 mph - N/A   Scattered Clouds
8:56 PM 66.2 °F 46.4 °F 49% 29.91 in 10.0 mi South 5.8 mph - N/A   Scattered Clouds
9:19 PM 66.2 °F 46.4 °F 49% 29.91 in 10.0 mi South 5.8 mph - N/A   Clear
9:37 PM 66.2 °F 46.4 °F 49% 29.91 in 10.0 mi South 6.9 mph - N/A   Scattered Clouds
9:55 PM 66.2 °F 46.4 °F 49% 29.91 in 10.0 mi South 6.9 mph - N/A   Scattered Clouds
10:15 PM 66.2 °F 46.4 °F 49% 29.92 in 10.0 mi South 4.6 mph - N/A   Scattered Clouds
10:16 PM 66.2 °F 46.4 °F 49% 29.92 in 10.0 mi South 4.6 mph - N/A   Scattered Clouds
10:35 PM 66.2 °F 48.2 °F 52% 29.91 in 10.0 mi South 8.1 mph - N/A   Mostly Cloudy